Upstream stations:
Downstream station:
SHEF ID: AMAT2 Canadian Rv nr Amarillo, TX
STATION TYPE:
Regulating: Stage = 13.00, Flow = 87096
STAGE RIV-FLOW WTR-TEMP CONDUCT BAT-LOAD
ft cfs F umho/cm volt
Ccp-Rev Ccp-Rev Ccp-Rev Ccp-Rev Ccp-Rev
(US/Central)
06/04 00:00 0.81 3 70.72 4 12.65
06/04 01:00 0.81 3 70.02 4 12.65
06/04 02:00 0.81 3 69.28 4 12.65
06/04 03:00 0.81 3 68.49 4 12.65
06/04 04:00 0.83 3 67.75 4 12.57
06/04 05:00 0.85 4 67.14 4 12.57
06/04 06:00 0.85 4 66.56 4 12.57
06/04 07:00 0.85 4 66.00 4 12.57
06/04 08:00 0.85 4 65.48 4 12.65
06/04 09:00 0.85 4 65.28 4 12.81
06/04 10:00 0.85 4 65.77 4 12.97
06/04 11:00 0.85 4 67.10 4 13.05
06/04 12:00 0.83 3 69.10 4 13.05
06/04 13:00 0.84 4 71.38 4 13.05
06/04 14:00 0.81 3 73.49 4 13.05
06/04 15:00 0.80 2 75.51 4 13.05
06/04 16:00 0.79 2 77.31 4 12.97
06/04 17:00 0.78 2 78.73 4 12.89
06/04 18:00 0.76 1 79.14 4 12.89
06/04 19:00 0.77 2 78.55 4 12.81
06/04 20:00 0.75 1 77.63 4 12.81
06/04 21:00 0.74 1 76.28 4 12.73
06/04 22:00 0.74 1 74.79 4 12.73
06/04 23:00 0.75 1 73.47 4 12.73